Current Version              Previous Version:    01  02  03  04  05  06  07  08  09  10  11  12  13  14  15  16  17  18  19  20  21  22  23  24  25  26  27  28  29  30  
   31  32  33  34  35  36  37  38  39  40  41  42  43  44  45  46  47  48  49  50  51  52  53  54  55  56  57  58  59  60  

[Printable]
226
ASUS44 KEWX 172102
RWRTX
SOUTH TEXAS REGIONAL WEATHER ROUNDUP
NATIONAL WEATHER SERVICE AUSTIN/SAN ANTONIO TX
400 PM CDT WED SEP 17 2014

NOTE: "FAIR" INDICATED FEW OR NO CLOUDS BELOW 12,000 FEET WITH NO
SIGNIFICANT WEATHER AND/OR OBSTRUCTIONS TO VISIBILITY.

* - THESE STATIONS ARE NOT NWS OR FAA STATIONS...AND ARE NOT SUBJECT
    TO NWS AND FAA QUALITY CONTROL.

TXZ171-172-183>190-172200-
TEXAS HILL COUNTRY AND EDWARDS PLATEAU

CITY           SKY/WX    TMP DP  RH WIND       PRES   REMARKS
JUNCTION       MOSUNNY   91  66  43 VRB3      29.89F HX  93
*LLANO         MOSUNNY   91  68  46 SE5       29.91F HX  95
BURNET         MOSUNNY   90  69  50 E9        29.90F HX  94
*HORSESHOE BAY MOSUNNY   89  66  45 S6        29.89F HX  92
*KERRVILLE     CLOUDY    87  72  61 SE10      29.91F HX  93
*FREDERICKSBRG MOSUNNY   83  71  66 SE7       29.92F
*ROCKSPRINGS   MOSUNNY   86  66  51 S6        29.96F
*BOERNE STAGE  CLOUDY    82  72  69 S6        29.92F
*CASTROVILLE   CLOUDY    86  71  60 NE8       29.88F HX  91
HONDO          CLOUDY    89  71  55 W8        29.90F HX  95
*UVALDE        PTSUNNY   88  75  65 E3        29.89F HX  97
DEL RIO        MOSUNNY   89  69  51 S3        29.86F HX  93
LAUGHLIN AFB   NOT AVBL
CARRIZO SPRGS  PTSUNNY   90  72  55 SE5       29.84F HX  96
$$

TXZ173-191>194-202-209-217>225-228-172200-
CENTRAL AND SOUTH CENTRAL TEXAS

CITY           SKY/WX    TMP DP  RH WIND       PRES   REMARKS
GEORGETOWN     MOSUNNY   90  70  51 SE7       29.88F HX  95
AUSTIN/BERGSTM PTSUNNY   84  72  67 SE13      29.87F
AUSTIN/MABRY   PTSUNNY   90  72  55 VRB7      29.87F HX  97
*AUSTIN/EXEC   PTSUNNY   86  72  62 SE6       29.88F HX  92
*LAGO VISTA    PTSUNNY   90  69  50 S5        29.90F HX  94
SAN MARCOS     PTSUNNY   84  72  65 E12       29.88F
NEW BRAUNFELS  CLOUDY    90  70  51 SW8       29.86F THUNDER HX  95
RANDOLPH AFB   CLOUDY    87  71  57 S7        29.87F HX  93
PT SAN ANTONIO CLOUDY    87  73  63 VRB1      29.86F HX  95
SAN ANTONIO    RAIN      79  75  87 NW9       29.89F
STINSON FIELD  CLOUDY    87  72  60 SW3       29.85F HX  93
*PLEASANTON    CLOUDY    88  72  59 E12G17    29.87S HX  94
*LA GRANGE     SUNNY     90  75  62 CALM      29.85F HX 100
*GIDDINGS      SUNNY     89  71  55 CALM      29.91F HX  95
*GONZALES      SUNNY     90  73  58 W5        29.85F HX  98
$$

TXZ163>164-176>182-195>201-210>213-226-227-235-172200-
SOUTHEAST TEXAS

CITY           SKY/WX    TMP DP  RH WIND       PRES   REMARKS
COLLEGE STN    PTSUNNY   89  70  53 CALM      29.87F HX  94
*BRYAN         PTSUNNY  N/A N/A N/A SE3       29.86F
*CALDWELL      MOSUNNY   90  72  55 SW6       29.90F HX  96
*CROCKETT        N/A     93  75  55 NE5       29.92F HX 104
*BRENHAM       SUNNY     88  74  62 NE8       29.88F HX  96
HUNTSVILLE     SUNNY     87  72  60 E5        29.88F HX  93
CONROE         TSTM      76  75  97 E7        29.92R FOG
HOUSTON BUSH   CLOUDY    76  74  93 SE10      29.90F
HOUSTON HOBBY  CLOUDY    78  76  93 E7        29.90F
*HOUSTON SW AP CLOUDY    76  76 100 CALM      29.91F
PEARLAND       CLOUDY   N/A N/A N/A E6        29.91F
HOUSTON HOOKS  CLOUDY    82  74  76 SE8       29.90F
ELLINGTON FLD  NOT AVBL
SUGAR LAND     HVY RAIN  77  75  93 S3        29.91F VSB 3/4
*HOUSTON EXEC  LGT RAIN  77  77 100 SE15      29.91S
*CLEVELAND MUN CLOUDY    76  74  94 S5        29.92F
*WHARTON       LGT RAIN  80  75  84 E5        29.90F
$$

TXZ214>216-236>238-172200-
THE UPPER TEXAS COAST

CITY           SKY/WX    TMP DP  RH WIND       PRES   REMARKS
*ORANGE        RAIN      75  75 100 CALM      29.95R
PORT ARTHUR    LGT RAIN  78  75  90 CALM      29.92R
GALVESTON      LGT RAIN  78  76  93 E3        29.91F
ANGLETON       LGT RAIN  79  75  87 S8        29.89F
*BAY CITY      PTSUNNY  N/A N/A N/A CALM      29.89F
PALACIOS       PTSUNNY   88  77  69 S12       29.88F HX 100
$$

TXZ229>234-239>247-172200-
TEXAS COASTAL BEND AND RIO GRANDE PLAINS

CITY           SKY/WX    TMP DP  RH WIND       PRES   REMARKS
VICTORIA       CLOUDY    94  72  48 S10       29.86F HX 102
*BEEVILLE      PTSUNNY   91  70  50 S10       29.85F HX  96
ROCKPORT       PTSUNNY   89  75  63 S10       29.86F HX  99
*PORT ARANSAS  PTSUNNY   87  76  70 S12       29.87F HX  97
*PORT LAVACA   PTSUNNY   89  75  63 S8        29.86F HX  98
*INGLESIDE     PTSUNNY   93  72  50 S15       29.86F HX 101
CORPUS CHRISTI PTSUNNY   91  75  59 S8        29.85F HX 101
CORPUS NAS     PTSUNNY   89  78  70 SE13      29.86F HX 103
*ROBSTOWN      PTSUNNY   93  71  49 S6        29.85F HX 100
ALICE          PTSUNNY   92  71  50 SW8       29.85F HX  98
KINGSVILLE NAS PTSUNNY   92  75  57 S7        29.85F HX 103
COTULLA        PTSUNNY   95  68  41 SW7       29.84F HX  99
*FAITH RANCH   PTSUNNY   90  72  55 SE5       29.87F HX  96
LAREDO         PTSUNNY   93  70  47 S9        29.86F HX  98
$$

TXZ248>255-172200-
DEEP SOUTH TEXAS

CITY           SKY/WX    TMP DP  RH WIND       PRES   REMARKS
BROWNSVILLE    MOSUNNY   90  77  65 SE14G20   29.86F HX 103
PORT ISABEL    PTSUNNY   90  76  63 S15       29.85F HX 101
*SOUTH PADRE   SUNNY     90  77  66 SE15      29.87F HX 102
HARLINGEN      MOSUNNY   91  74  57 S14       29.84F HX 100
*HEBBRONVILLE    N/A     90  68  47 SE6       29.88F HX  93
MCALLEN        MOSUNNY   90  74  59 SE15      29.85F HX  99
*WESLACO       MOSUNNY   90  73  57 S10       29.84F HX  97
FALFURRIAS     PTSUNNY  N/A N/A N/A S9        29.85S
EDINBURG       MOSUNNY   92  71  50 S7G16     29.85F HX  99
*ZAPATA        MOSUNNY   94  66  39 S5        29.83F HX  96
$$

TXZ213>215-236>238-242>244-246-247-251-254-255-172200-
CMAN STATIONS

STATION/POSITION TIME  TEMP    WIND        PRES    WAVE
                       AIR SEA DIR/SP/G            HT/PER
                 (UTC) (F)     (DEG/KT/KT) (MB)    (FT/S)
SABINE PASS      2000   78 83  190/  5/  6 1013.4
SEA RIM ST PARK  2000   78     160/  3/  4 1013.8
NORTH JETTY/GLS  2000   77 84   70/  2/  3   N/A
EAGLE POINT      2000   77 83  290/  2/  3 1013.2
MORGANS POINT    2000   77     240/  4/  6 1013.0
MISSION/ARANSAS  2000          150/ 15     1013.0
PORT O`CONNOR    2000          160/ 10/ 12   N/A
PORT ARANSAS     2000   84 85  150/ 11/ 12 1012.8
MALAQUITE BEACH  2000   84 86  140/ 13/ 14 1010.9
BAFFIN BAY       2000   85 87  130/ 10/ 12 1011.3
PORT ISABEL      2000   86 83  140/ 15/ 19 1011.8
$$

GMZ080-GMZ150>470-172200-
OFFSHORE BUOY REPORTS

STATION/POSITION TIME  TEMP    WIND        PRES    WAVE
                       AIR SEA DIR/SP/G            HT/PER
                 (UTC) (F)     (DEG/KT/KT) (MB)    (FT/S)
20 E GALVESTON   2100   79 84  100/ 10/ 12 1012.4    2/ 6
90 E PT ARANSAS  2100   83 86   CALM  /  2 1012.8    2/ 6
35 NE PT MANSFLD 2000   84 85  190/ 10/ 12 1011.7    2/ 6
200 E PT ISABEL  2000   85 86  200/  6/  8 1013.2    2/ 7
$$